map of ENC home
Great Circle Mapper logo
ENC - Airport
Location
City:  Nancy, Lorraine, France
Name:Essey
ICAO:LFSN
IATA:ENC

Details
Type:Airport (Aerodrome, Airfield)
Use:Public/Civil
Latitude:4841'32"N (48.692086)
Longitude:613'34"E (6.226050)
Elevation:751 ft (229 m)
Variation:1.51E (WMM2015 magnetic declination)
0.13 annual change
Runways:2
Longest:4593 × 131 ft (1400 × 40 m)

Time
Time Zone:UTC+1 (DST+2)
Local Time:

Weather
METAR:LFSN 050400Z AUTO 03003KT CAVOK 03/M01 Q1024

Related Locations
Nearby:
Farthest:CHT: 12070 mi / 19425 km
Waitangi [Tuuta], Chatham Islands, NZ

Find:

   beyond  
but within

Other Information
Maps:
NOTAMs:
Links:
Sources:

  
flag of France
flag of Lorraine
  

Sectional Chart

Flight Planning
at skyvector.com

Satellite Image

Google Maps Satellite view

 

Copyright © 2004-2016 Karl L. Swartz. All rights reserved.
The Great Circle Mapper name and logo are trademarks of the Great Circle Mapper.
All other trademarks mentioned herein belong to their respective owners.
Please see credits for attibutions and further copyright information.

  Follow gcmap on Facebook Follow gcmap on Twitter Follow gcmap on Google+ GCmap on LinkedIn

hCard Microformat

Geo Microformat